{"data":{"norad_id":56493,"intl_designator":"2023-064AX","name":"STARLINK-5841","alt_names":[],"object_type":"PAYLOAD","status":"ACTIVE","operator":null,"country":"US","launch_date":"2023-05-10","launch_site_code":"AFWTR","launch_vehicle":null,"mission":null,"orbit_class":"UNKNOWN","rcs_meters":null,"size_class":null,"mass_kg":null,"dimensions":null,"purposes":["comms"],"wikipedia_slug":null,"has_3d_model":false,"image_url":null,"decayed_at":null,"tle_current":{"epoch":"2026-05-24T17:16:34.001472Z","epoch_age_seconds":95944,"freshness":"FRESH","line1":"1 56493U 23064AX  26144.71983798 -.00000731  00000+0 -53439-4 0  9991","line2":"2 56493  69.9996 252.7664 0003072 270.4194  89.6613 14.98336069168117","mean_motion":14.98336069,"eccentricity":0.0003072,"inclination_deg":69.9996,"raan_deg":252.7664,"arg_perigee_deg":270.4194,"mean_anomaly_deg":89.6613,"bstar":-5.3439e-5,"rev_number":16811,"period_min":96.106609844951,"perigee_km":569.90202963528,"apogee_km":574.17221661652,"semimajor_km":6950.1741231259,"source":"CELESTRAK","updated_at":"2026-05-25T13:38:18.075961Z"}}}